This is the latest recevied weather packets stored in our database for station/object HS3UAA-1. If no packets are shown the sender has not sent any weather packets the latest 10 day(s).
| Time | Temp. | Humidity | Pressure | Rain* | Wind** | Luminosity | Snow |
|---|---|---|---|---|---|---|---|
| 1777945619 | 27.22° C | 58% | 999 hPa | - | - | 0 W/m² | - |
| 1777945297 | 27.22° C | 62% | 999 hPa | - | - | 0 W/m² | - |
| 1777944975 | 27.22° C | 61% | 999 hPa | - | - | 0 W/m² | - |
| 1777944653 | 27.22° C | 60% | 999 hPa | - | - | 0 W/m² | - |
| 1777944331 | 27.22° C | 60% | 999 hPa | - | - | 0 W/m² | - |
| 1777943873 | 27.22° C | 62% | 998 hPa | - | - | 0 W/m² | - |
| 1777943551 | 27.22° C | 62% | 998 hPa | - | - | 0 W/m² | - |
| 1777943229 | 27.22° C | 61% | 998 hPa | - | - | 0 W/m² | - |
| 1777942907 | 27.22° C | 61% | 998 hPa | - | - | 0 W/m² | - |
| 1777942585 | 26.67° C | 61% | 998 hPa | - | - | 0 W/m² | - |
| 1777941995 | 27.22° C | 63% | 998 hPa | - | - | 0 W/m² | - |
| 1777941673 | 27.22° C | 63% | 998 hPa | - | - | 0 W/m² | - |
| 1777941351 | 27.22° C | 62% | 997 hPa | - | - | 0 W/m² | - |
| 1777941029 | 26.67° C | 62% | 997 hPa | - | - | 0 W/m² | - |
| 1777940707 | 27.22° C | 62% | 997 hPa | - | - | 0 W/m² | - |
| 1777940385 | 27.22° C | 60% | 997 hPa | - | - | 0 W/m² | - |
| 1777940063 | 27.78° C | 60% | 997 hPa | - | - | 0 W/m² | - |
| 1777939741 | 28.33° C | 55% | 997 hPa | - | - | 0 W/m² | - |
| 1777939419 | 28.89° C | 52% | 997 hPa | - | - | 0 W/m² | - |
| 1777939097 | 30.56° C | 53% | 997 hPa | - | - | 0 W/m² | - |
| 1777938775 | 30.56° C | 54% | 997 hPa | - | - | 0 W/m² | - |
| 1777938453 | 30° C | 54% | 997 hPa | - | - | 0 W/m² | - |
| 1777938131 | 30.56° C | 53% | 997 hPa | - | - | 0 W/m² | - |
| 1777937809 | 31.11° C | 52% | 997 hPa | - | - | 0 W/m² | - |
| 1777937487 | 31.67° C | 51% | 997 hPa | - | - | 0 W/m² | - |
* Rain since midnight (hover to see other rain measurements)
** Current wind speed in m/s (hover to see current wind gust speed)